Location: Lobos
(35.3000°S, 59.0940°W)
Time: 02:14:29
(UTC-03:00)

PRISM - Visible Passes

Search period start: 26 November 2020 00:00
Search period end: 06 December 2020 00:00
Orbit: 565 x 585 km, 98.2° (Epoch: 25 November)

Date Brightness Start Highest point End Pass type
(mag) Time Alt. Az. Time Alt. Az. Time Alt. Az.
26 Nov ? 02:41:02 45° S 02:41:02 45° S 02:43:57 10° S visible
27 Nov ? 02:44:31 45° S 02:44:31 45° S 02:47:26 10° SSW visible
28 Nov ? 02:47:58 46° SSW 02:47:58 46° SSW 02:50:55 10° SSW visible
29 Nov ? 02:51:26 45° SSW 02:51:26 45° SSW 02:54:23 10° SSW visible
30 Nov ? 02:54:54 44° SSW 02:54:54 44° SSW 02:57:51 10° SSW visible
01 Dec ? 02:58:22 43° SW 02:58:22 43° SW 03:01:18 10° SSW visible
02 Dec ? 03:01:50 41° SW 03:01:50 41° SW 03:04:44 10° SSW visible
03 Dec ? 01:29:04 11° ESE 01:29:30 11° ESE 01:30:32 10° SE visible
03 Dec ? 03:05:18 39° SW 03:05:18 39° SW 03:08:11 10° SSW visible
04 Dec ? 01:32:32 12° ESE 01:32:56 12° ESE 01:34:27 10° SE visible
04 Dec ? 03:08:46 36° SW 03:08:46 36° SW 03:11:37 10° SSW visible
05 Dec ? 01:36:00 13° ESE 01:36:22 13° ESE 01:38:14 10° SE visible
05 Dec ? 03:12:14 34° WSW 03:12:14 34° WSW 03:15:01 10° SSW visible
